Indianapolis, IN

4:18 AM EST on December 09, 2016 (GMT -0500)
Indianapolis International

Weather History for KIND - August, 2013

Change the Weather History Date:

Sunday, August 18, 2013

  Actual Average Record
Temperature  
Mean Temperature 72 °F 74 °F  
Max Temperature 83 °F 84 °F 98 °F (1936)
Min Temperature 61 °F 65 °F 48 °F (1963)
Degree Days  
Heating Degree Days 0 0  
Month to date heating degree days 5 0  
Since 1 June heating degree days 17 17  
Since 1 July heating degree days 8 1  
Cooling Degree Days 7 9  
Month to date cooling degree days 140 178  
Year to date cooling degree days 780 811  
Since 1 June cooling degree days 651 727  
Growing Degree Days 22 (Base 50)    
Moisture  
Dew Point 57 °F    
Average Humidity 62    
Maximum Humidity 84    
Minimum Humidity 40    
Precipitation  
Precipitation 0.00 in 0.11 in 1.61 in (1939)
Month to date precipitation 0.85 1.82  
Year to date precipitation 29.63 28.02  
Snow  
Snow 0.00 in 0.00 in 0.00 in ()
Month to date snowfall 0.0 0.0  
Since 1 June snowfall 0.0 0.0  
Since 1 July snowfall 0.0 0.0  
Snow Depth 0.00 in    
Sea Level Pressure  
Sea Level Pressure 30.13 in    
Wind  
Wind Speed 5 mph (East)    
Max Wind Speed 14 mph    
Max Gust Speed 16 mph    
Visibility 10 miles    
Events      
T = Trace of Precipitation, MM = Missing Value Source: NWS Daily Summary

Daily Weather History Graph

Daily Weather History Graph

Search for Another Location

Airport or City:

Trip Planner

Search our weather history database for the weather conditions in past years. The results will help you decide how hot, cold, wet, or windy it might be!

Date:

Astronomy

Aug. 18, 2013 Rise Set
Actual Time 7:00 AM EDT 8:36 PM EDT
Civil Twilight 6:31 AM EDT 9:05 PM EDT
Nautical Twilight 5:57 AM EDT 9:39 PM EDT
Astronomical Twilight 5:20 AM EDT 10:16 PM EDT
Moon 6:42 PM EDT (8/18) 4:09 AM EDT (8/18)
Length of Visible Light 14h 33m
Length of Day
13h 36m
Waxing Gibbous, 92% of the Moon is Illuminated
Aug 18
Waxing Gibbous
Aug 20
Full
Aug 28
Last Quarter
Sep 5
New
Sep 12
First Quarter

Hourly Weather History & Observations

Time (EDT) Temp. Heat Index Dew Point Humidity Pressure Visibility Wind Dir Wind Speed Gust Speed Precip Events Conditions
12:54 AM 66.0 °F - 57.0 °F 73% 30.12 in 10.0 mi NNE 8.1 mph - N/A   Clear
1:54 AM 66.0 °F - 57.0 °F 73% 30.13 in 10.0 mi NE 6.9 mph - N/A   Scattered Clouds
2:54 AM 64.9 °F - 57.0 °F 75% 30.12 in 10.0 mi NE 4.6 mph - N/A   Scattered Clouds
3:54 AM 64.0 °F - 57.0 °F 78% 30.12 in 10.0 mi NE 5.8 mph - N/A   Partly Cloudy
4:54 AM 63.0 °F - 57.0 °F 81% 30.12 in 10.0 mi NE 4.6 mph - N/A   Partly Cloudy
5:54 AM 62.1 °F - 57.0 °F 84% 30.12 in 10.0 mi NE 4.6 mph - N/A   Partly Cloudy
6:54 AM 62.1 °F - 57.0 °F 84% 30.13 in 9.0 mi NE 5.8 mph - N/A   Partly Cloudy
7:54 AM 63.0 °F - 57.9 °F 84% 30.16 in 6.0 mi ENE 3.5 mph - N/A   Haze
8:54 AM 66.9 °F - 59.0 °F 76% 30.17 in 7.0 mi ENE 3.5 mph - N/A   Partly Cloudy
9:54 AM 70.0 °F - 60.1 °F 71% 30.18 in 6.0 mi NE 3.5 mph - N/A   Haze
10:54 AM 75.0 °F - 59.0 °F 57% 30.18 in 10.0 mi ESE 5.8 mph - N/A   Scattered Clouds
11:54 AM 78.1 °F - 57.0 °F 48% 30.17 in 10.0 mi SE 8.1 mph - N/A   Scattered Clouds
12:54 PM 80.1 °F 80.1 °F 55.0 °F 42% 30.15 in 10.0 mi East 8.1 mph - N/A   Scattered Clouds
1:54 PM 80.1 °F 80.2 °F 55.9 °F 43% 30.14 in 10.0 mi East 9.2 mph - N/A   Mostly Cloudy
2:54 PM 81.0 °F 80.7 °F 55.0 °F 41% 30.12 in 10.0 mi East 5.8 mph - N/A   Mostly Cloudy
3:54 PM 80.1 °F 80.1 °F 55.0 °F 42% 30.12 in 10.0 mi Calm Calm - N/A   Mostly Cloudy
4:54 PM 82.0 °F 81.4 °F 55.0 °F 39% 30.10 in 10.0 mi East 5.8 mph - N/A   Mostly Cloudy
5:54 PM 81.0 °F 80.8 °F 55.9 °F 42% 30.09 in 10.0 mi SSE 4.6 mph - N/A   Scattered Clouds
6:54 PM 80.1 °F 80.2 °F 55.9 °F 43% 30.09 in 10.0 mi SE 6.9 mph - N/A   Mostly Cloudy
7:54 PM 78.1 °F - 55.9 °F 46% 30.08 in 10.0 mi South 4.6 mph - N/A   Scattered Clouds
8:54 PM 75.9 °F - 57.0 °F 52% 30.09 in 10.0 mi South 5.8 mph - N/A   Mostly Cloudy
9:54 PM 72.0 °F - 57.9 °F 61% 30.11 in 10.0 mi WSW 4.6 mph - N/A   Mostly Cloudy
10:54 PM 73.0 °F - 57.0 °F 57% 30.11 in 10.0 mi Calm Calm - N/A   Scattered Clouds
11:54 PM 69.1 °F - 57.9 °F 68% 30.11 in 10.0 mi Calm Calm - N/A   Scattered Clouds